Regional Weather Roundup
Issued by NWS

Current Version | Previous Version | Text Only | Print | Product List | Glossary On
Versions: 1 2 3 4 5 6 7 8 9 10 11 12 13 14 15 16 17 18 19 20 21 22 23 24 25 26 27 28 29 30 31 32 33 34 35 36 37 38 39 40 41 42 43 44 45 46 47 48 49 50
564
ASHW40 PHFO 280643
RWRHI

WEATHER ROUNDUP FOR HAWAII
NATIONAL WEATHER SERVICE HONOLULU HI
800 PM HST THU APR 27 2017

THIS IS AN AUTOMATED REPORT THAT HAS NOT BEEN QUALITY CONTROLLED.

NOTE..."FAIR" INDICATES FEW OR NO CLOUDS BELOW 12,000 FEET WITH NO
SIGNIFICANT WEATHER AND/OR OBSTRUCTIONS TO VISIBILITY.

* - THESE SITES REPORT LIMITED FIELDS

HIZ001>004-280700-
KAUAI-NIIHAU-

CITY           SKY/WX    TMP DP  RH WIND       PRES   REMARKS
LIHUE APT      CLEAR     77  67  71 CALM      30.04R
PORT ALLEN*      N/A     72 N/A N/A N8          N/A
POIPU*           N/A     73 N/A N/A NW1         N/A
PRINCEVILLE*     N/A     75 N/A N/A S2          N/A
KOKOLE POINT*  NOT AVBL
MOLOAA DAIRY*    N/A     72  68  88 CALM        N/A
WAIMEA HTS*      N/A     72  63  73 VRB5        N/A
PUU OPAE*      NOT AVBL
PUU LUA*       NOT AVBL
MAKAHA RIDGE*    N/A     66 N/A N/A CALM        N/A
$$

HIZ005>011-280700-
OAHU-

CITY           SKY/WX    TMP DP  RH WIND       PRES   REMARKS
HONOLULU       MOCLDY    76  67  73 N5        30.02R
KALAELOA       CLOUDY    77  65  66 VRB5      30.03R
KANEOHE MCB    NOT AVBL
WHEELER FIELD  NOT AVBL
BELLOWS*         N/A    N/A N/A N/A W5G12       N/A
KAHUKU*          N/A    N/A N/A N/A NE2         N/A
WHEELER*         N/A    N/A N/A N/A NE2         N/A
WAIANAE HARBOR   N/A    N/A N/A N/A E6          N/A
DILLINGHAM*      N/A     86  79  79 CALM        N/A  HX  99
KAHUKU TRN*      N/A     82  81  94 CALM        N/A  HX  95
KAWAILOA*        N/A     68  64  88 E3          N/A
KII*             N/A     73  68  83 SE3         N/A
MAKUA RANGE*     N/A     75  64  69 NW5         N/A
OAHU FOREST NW   N/A     68  63  83 NE8         N/A
SCHOFIELD BRK*   N/A     81  77  89 SW1         N/A
SCHOFIELD S*   NOT AVBL
WAIANAE VLY*     N/A     72  66  83 N3          N/A
KUAOKALA*        N/A     72  64  78 E7G13       N/A
HONOULIUULI*   NOT AVBL
MOKUOLOE IS*   NOT AVBL
PALEHUA*         N/A     66  66 100 SE2G9       N/A
WAIAWA PHB*    NOT AVBL
$$

HIZ012>013-280700-
MOLOKAI-

CITY           SKY/WX    TMP DP  RH WIND       PRES   REMARKS
MOLOKAI AIRPT  CLOUDY    67  67 100 N5        30.03R
KALAUPAPA      NOT AVBL
MAKAPULAPAI*     N/A     73  68  83 SE3G12      N/A
MOLOKAI 1*     NOT AVBL
PUU ALII*        N/A     61  60  98 CALM        N/A
$$

HIZ016-280700-
KAHOOLAWE-

CITY           SKY/WX    TMP DP  RH WIND       PRES   REMARKS
KAHOOLAWE*     NOT AVBL
HAKIOAWA*        N/A     71  68  91 MISG      30.44S
HONOKANAIA*      N/A     78  67  69 N6G14     29.95R
KANELOA*         N/A     73  68  83 NE6G15    30.07R
KEALIALALO*    NOT AVBL
LUA MAKIKA*    NOT AVBL
$$

HIZ014>015-280700-
LANAI-

CITY           SKY/WX    TMP DP  RH WIND       PRES   REMARKS
LANAI CITY     CLOUDY    69  67  93 E3        30.08R
LANAI 1*       NOT AVBL
$$

HIZ017>028-280700-
MAUI-

CITY           SKY/WX    TMP DP  RH WIND       PRES   REMARKS
KAHULUI        MOCLDY    75  69  81 N7        30.02R
KAPALUA-W MAUI NOT AVBL
HANA AIRPORT   NOT AVBL
HANA*            N/A     75 N/A N/A SE5         N/A
HALEAKALA SUMM   N/A     43  16  33 E16         N/A
MAALAEA BAY*     N/A     75 N/A N/A VRB6        N/A
HALEAKALA*     NOT AVBL
KAUPO GAP*     NOT AVBL
KULA 1*          N/A     51  51 100 E3          N/A
$$

HIZ023>026-280700-
BIG ISLAND OF HAWAII COAST AND LOWER SLOPES-

CITY           SKY/WX    TMP DP  RH WIND       PRES   REMARKS
KAILUA KONA    PTCLDY    79  67  66 S10       29.99R
HILO           PTCLDY    73  67  81 SW3       30.03R
HONOKAA*         N/A     68 N/A N/A VRB1        N/A
KAWAIHAE MWT*    N/A     81 N/A N/A SW3         N/A
KAWAIHAE*        N/A     79 N/A N/A SW3       30.00R
SOUTH POINT*     N/A     70 N/A N/A N9          N/A
UPOLU AIRPORT* NOT AVBL
KAMUELA*       PTCLDY    63  61  94 E5        30.12R
HAKALAU*         N/A     51  51  99 S3G12       N/A
KALOKO-HONOKO*   N/A     79  66  65 S6        29.99R
PALI 2*          N/A     63  59  88 E2G13       N/A
KEALAKOMO*       N/A     77  63  61 NE8G14      N/A
KAUPULEHU*       N/A     73  66  78 NE3G13      N/A
KAPAPALA*        N/A     63  62  97 VRB2        N/A
LOWER KAHUKU*    N/A     61  59  94 N2          N/A
PUHE CS*         N/A     79  66  65 S1          N/A
PUHO CS*         N/A     75  67  76 E1          N/A
PTA KEAMUKU*     N/A    N/A N/A N/A CALM        N/A
WAIKOLOA*        N/A     75  66  73 CALM        N/A
$$

HIZ027>028-280700-
BIG ISLAND OF HAWAII INTERIOR AND SUMMMITS-

CITY           SKY/WX    TMP DP  RH WIND       PRES   REMARKS
BRADSHAW FIELD NOT AVBL
MK VISITOR CEN   N/A     45  30  57 E2          N/A
MAUNA KEA*       N/A     37  -4  17 W2          N/A
MAUNA LOA*       N/A     48  -2  12 MISG        N/A
MAUNA LOA 1*   NOT AVBL
PTA KIPUKA*      N/A     63  63 100 N1          N/A
PTA RANGE 17*    N/A     63  57  82 S5G10       N/A
PTA WEST*        N/A     66  64  94 CALM        N/A
NENE CABIN*      N/A     52  50  93 E3G12       N/A
AHUMOA*          N/A     53  53 100 CALM        N/A
PTA PORTABLE*  NOT AVBL
PUU MALI*        N/A     52  52 100 S2G14       N/A
$$

HIC003-280700-
NORTHWEST ISLANDS-

CITY           SKY/WX    TMP DP  RH WIND       PRES   REMARKS
MIDWAY ISLAND    N/A     64  48  55 NE7       30.39R
MIDWAY NOS*      N/A     64 N/A N/A MISG      30.37S
FRENCH FRIGATE NOT AVBL
$$

PHZ110>124-180-280700-
BUOY REPORTS

STATION/POSITION TIME  TEMP    WIND        PRES    WAVE   SWELL
                       AIR SEA DIR/SP/G            HT/PER HT/DIR
                 (UTC) (F)     (DEG/KT/KT) (MB)    (FT/S) (FT/D)
BUOY 51001       0620   74 78  350/ 12/ 14 1018.0
BUOY 51101       0550   76 78  340/ 14/ 16 1018.1R   5/10   5/320
BUOY 51100       NOT AVBL
BUOY 51002       0620   77 78   70/ 12/ 14 1015.6
BUOY 51003       0550   78 80   CALM  /  2 1016.4R   6/19   5/170
BUOY 51004       0550      78   90/ 14/ 17 1016.0R   6/ 8   5/100
BARBERS PT BUOY  NOT AVBL
WAIMEA BAY BUOY  0602      77                N/A     3/11   2/320
KAILUA BAY BUOY  0604      79                N/A     4/ 7   2/ 20
LANAI BUOY       0615      80                N/A     3/13   3/200
BARBERS PT 2     NOT AVBL
PAUWELA MAUI     0609      77                N/A     4/11   2/330
HILO             0612      78                N/A     5/ 8   2/340
KANEOHE BAY BUOY 0625      78                N/A     3/ 8   2/350
HANALEI KAUAI    0622      78                N/A     3/11   2/310
KAHULUI HARBOR   0612   75 78  300/  6/  7 1016.7
HONOLULU HARBOR  0618   75 80   60/  5/  6 1017.6
KILO NALU        NOT AVBL
HILO HARBOR      0618   76 77  220/  4/  5 1016.9
MOKUOLOE         0536   72 81  280/  4/  8 1016.6R
NAWILIWILI       0618   74     260/  5/  6 1017.0
WHOTS BUOY       NOT AVBL
BUOY 51028       NOT AVBL
$$

......................KEY........................................
  SKY/WX - SKY CONDITIONS/PRESENT WEATHER
  TMP    - TEMPERATURE IN FAHRENHEIT
  DWPT   - DEWPOINT IN FAHRENHEIT
  RH     - RELATIVE HUMIDITY IN PERCENT
  WIND   - DIRECTION AND SPEED /MPH FOR ISLANDS...KTS FOR BUOYS/
  PRES   - MEAN SEA LEVEL PRESSURE IN INCHES OF HG
  VSB    - VISIBILITY IN MILES
  HX     - HEAT INDEX
  WCI    - WIND CHILL INDEX
  VRB    - VARIABLE WIND DIRECTION
  N/A    - NOT AVAILABLE




USA.gov is the U.S. government's official web portal to all federal, state and local government web resources and services.